Weather Roundup
Issued by NWS Springfield, MO

Home | Current Version | Previous Version | Text Only | Print | Product List | Glossary On
Versions: 1 2 3 4 5 6 7 8 9 10 11 12 13 14 15 16 17 18 19 20 21 22 23 24 25 26 27 28 29 30 31 32 33 34 35 36 37 38 39 40 41 42 43 44 45 46 47 48 49 50
000
NZUS99 KSGF 272059
HRRSGF

HOURLY WEATHER
NATIONAL WEATHER SERVICE SPRINGFIELD MO
300 PM CST FRI FEB 27 2015

......SGF CWA......

CITY           SKY/WX    TMP DP  RH WIND       PRES   REMARKS
SPRINGFIELD    CLOUDY    22   3  44 N5        30.51S WCI  16
JOPLIN         CLOUDY    21   1  41 NE6       30.54F WCI  13
WEST PLAINS    CLOUDY    20  -2  38 E5        30.52R WCI  13
ROLLA          PTSUNNY   20  -2  38 NE7       30.51F WCI  11
OSAGE BEACH    CLOUDY    21   0  39 NE5       30.56R WCI  15
BRANSON        CLOUDY    21   1  42 CALM      30.53S

......SURROUNDING SGF CWA......

CITY           SKY/WX    TMP DP  RH WIND       PRES   REMARKS
CHANUTE        CLOUDY    19   3  49 SE9       30.54F WCI   8
PARSONS        CLOUDY    21   1  41 CALM      30.55F
COFFEYVILLE    CLOUDY    21   3  45 E8        30.55F WCI  11
EMPORIA        CLOUDY    18   0  45 VRB5      30.52S WCI  11
ROGERS AR      LGT SNOW  18   9  68 NE6       30.51F WCI   9
SILOAM SPRINGS CLOUDY    19   1  45 E6        30.52S WCI  11
HARRISON AR    CLOUDY    19   2  47 E3        30.52R
NEAR YELLVILLE CLOUDY    23   1  39 CALM      30.56R

......KANSAS AND MISSOURI......

CITY           SKY/WX    TMP DP  RH WIND       PRES   REMARKS
KANSAS CTY INT CLOUDY    17   0  47 VRB5      30.55F WCI  10
DOWNTOWN KC    PTSUNNY   18   0  45 VRB5      30.58F WCI  11
COLUMBIA       MOSUNNY   22   2  42 N3        30.57F
SEDALIA        MOSUNNY   21   0  39 E5        30.58F WCI  15
ST JOSEPH      MOSUNNY   19   0  43 MISG      30.57F
ST LOUIS       PTSUNNY   18  -1  43 CALM      30.63F
SPIRIT OF STL  SUNNY     19  -1  41 N6        30.62F WCI  11
WICHITA        LGT SNOW  16   8  71 E3        30.50F
TOPEKA         CLOUDY    18   0  45 E3        30.56F
OLATHE         PTSUNNY   18  -2  41 E5        30.53F WCI  11

......TENNESSEE......

CITY           SKY/WX    TMP DP  RH WIND       PRES   REMARKS
MEMPHIS        PTSUNNY   34  12  40 E12       30.51S WCI  25
NASHVILLE      MOSUNNY   33  10  38 NE9       30.54R WCI  25

......ARKANSAS.......

CITY           SKY/WX    TMP DP  RH WIND       PRES   REMARKS
FAYETTEVILLE   LGT SNOW  19   9  65 E6        30.51F WCI  11
FT SMITH       LGT SNOW  21  16  81 E5        30.56F WCI  15
LITTLE ROCK    CLOUDY    31   5  33 N9        30.58R WCI  23

......OKLAHOMA.......

CITY           SKY/WX    TMP DP  RH WIND       PRES   REMARKS
TULSA          LGT SNOW  19  14  81 NE10      30.54F WCI   7
PONCA CITY     LGT SNOW  19  10  68 SE7       30.53S WCI  10
MCALESTER      LGT SNOW  22  16  78 NE6       30.50F VSB 3/4 WCI  14
OKLAHOMA CITY  LGT SNOW  19  11  70 E7        30.47S WCI  10

......IOWA............

CITY           SKY/WX    TMP DP  RH WIND       PRES   REMARKS
DES MOINES     MOSUNNY   12  -1  56 W5        30.59F WCI   4
QUAD CITIES    SUNNY     14  -2  49 W6        30.62S WCI   5

......ILLINOIS........

CITY           SKY/WX    TMP DP  RH WIND       PRES   REMARKS
QUINCY         SUNNY     11  -5  48 CALM      30.63S
CHICAGO        SUNNY     13  -4  46 W13       30.59R WCI  -2



USA.gov is the U.S. government's official web portal to all federal, state and local government web resources and services.